Location: Unspecified
(38.9820°N, 94.4650°W)
Time: 02:31:21
(UTC-05:00)

Okean 3 - Visible Passes

Search period start: 01 September 2014 00:00
Search period end: 11 September 2014 00:00
Orbit: 583 x 610 km, 82.5° (Epoch: 31 August)

Date Brightness Start Highest point End Pass type
(mag) Time Alt. Az. Time Alt. Az. Time Alt. Az.
01 Sep 3.5 05:00:40 54° WSW 05:01:04 56° W 05:05:12 10° N visible
02 Sep 6.0 03:34:46 16° E 03:34:46 16° E 03:37:01 10° NE visible
02 Sep 4.1 05:11:29 34° WNW 05:11:29 34° WNW 05:15:19 10° NNW visible
03 Sep 5.6 03:45:32 24° ENE 03:45:32 24° ENE 03:48:05 10° NNE visible
03 Sep 4.9 05:22:15 21° WNW 05:22:15 21° WNW 05:25:12 10° NNW visible
04 Sep 5.2 03:56:16 30° NE 03:56:16 30° NE 03:58:47 10° NNE visible
04 Sep 5.4 05:32:59 14° WNW 05:32:59 14° WNW 05:34:38 10° NW visible
05 Sep 5.0 04:06:58 32° NNE 04:06:58 32° NNE 04:09:17 10° NNE visible
06 Sep 5.1 04:17:38 27° N 04:17:38 27° N 04:19:37 10° N visible
07 Sep 5.4 04:28:16 20° NNW 04:28:16 20° NNW 04:29:48 10° N visible
08 Sep 6.7 03:02:10 10° NE 03:02:10 10° NE 03:02:12 10° NE visible
08 Sep 5.7 04:38:53 15° NNW 04:38:53 15° NNW 04:39:46 10° NNW visible
09 Sep 6.6 03:12:46 11° NNE 03:12:46 11° NNE 03:13:01 10° NNE visible
10 Sep 6.5 03:23:19 12° NNE 03:23:19 12° NNE 03:23:35 10° NNE visible
